• In Netherlands
  • List of Countries
  • For 7 days
  • Water Temperature
  • Satellite Maps
  • Weather Map
  • Weather Widgets
  • user-avatar
    Login

    Hourly Weather Sveti Vlas

    Today, 19 January, Friday

    Time Temperature Precipitation Wind Pressure Humidity
    00:00 -4°C° 0 mm 9 mps 752 mmHg 78%
    01:00 -4°C° 0 mm 8 mps 752 mmHg 79%
    02:00 -3°C° 0 mm 7 mps 752 mmHg 77%
    03:00 -3°C° 0 mm 7 mps 752 mmHg 75%
    04:00 -3°C° 0 mm 6 mps 752 mmHg 73%
    05:00 -2°C° 0 mm 5 mps 752 mmHg 72%
    06:00 -2°C° 0 mm 5 mps 752 mmHg 68%
    07:00 -1°C° 0 mm 5 mps 752 mmHg 65%
    08:00 -1°C° 0 mm 5 mps 752 mmHg 58%
    09:00 +1°C° 0 mm 5 mps 752 mmHg 52%
    10:00 +3°C° 0 mm 5 mps 753 mmHg 46%
    11:00 +6°C° 0 mm 5 mps 753 mmHg 40%
    12:00 +7°C° 0 mm 5 mps 753 mmHg 41%
    13:00 +8°C° 0 mm 4 mps 753 mmHg 42%
    14:00 +10°C° 0 mm 4 mps 753 mmHg 44%
    15:00 +8°C° 0 mm 4 mps 753 mmHg 49%
    16:00 +6°C° 0 mm 4 mps 753 mmHg 55%
    17:00 +5°C° 0 mm 4 mps 753 mmHg 60%
    18:00 +5°C° 0 mm 4 mps 753 mmHg 62%
    19:00 +4°C° 0 mm 4 mps 753 mmHg 64%
    20:00 +4°C° 0 mm 4 mps 754 mmHg 66%
    21:00 +3°C° 0 mm 4 mps 754 mmHg 68%
    22:00 +3°C° 0 mm 4 mps 753 mmHg 71%
    23:00 +3°C° 0 mm 4 mps 753 mmHg 73%

    Tomorrow, 20 January, Saturday

    Time Temperature Precipitation Wind Pressure Humidity
    00:00 +3°C° 0 mm 4 mps 753 mmHg 76%
    01:00 +1°C° 0 mm 4 mps 753 mmHg 79%
    02:00 +1°C° 0 mm 4 mps 753 mmHg 82%
    03:00 +1°C° 0 mm 5 mps 753 mmHg 83%
    04:00 +1°C° 0 mm 5 mps 753 mmHg 84%
    05:00 +1°C° 0 mm 5 mps 753 mmHg 86%
    06:00 +1°C° 0 mm 5 mps 753 mmHg 84%
    07:00 +1°C° 0 mm 5 mps 752 mmHg 83%
    08:00 +1°C° 0 mm 5 mps 752 mmHg 81%
    09:00 +3°C° 0 mm 4 mps 752 mmHg 77%
    10:00 +5°C° 0 mm 4 mps 752 mmHg 73%
    11:00 +6°C° 0 mm 4 mps 752 mmHg 69%
    12:00 +7°C° 0 mm 4 mps 752 mmHg 71%
    13:00 +8°C° 0 mm 4 mps 751 mmHg 73%
    14:00 +8°C° 0 mm 4 mps 751 mmHg 75%
    15:00 +8°C° 0.1 mm 4 mps 751 mmHg 80%
    16:00 +8°C° 0.1 mm 4 mps 750 mmHg 85%
    17:00 +7°C° 0.1 mm 4 mps 750 mmHg 90%
    18:00 +7°C° 0.1 mm 4 mps 750 mmHg 90%
    19:00 +7°C° 0.1 mm 4 mps 750 mmHg 90%
    20:00 +6°C° 0.1 mm 4 mps 750 mmHg 91%
    21:00 +6°C° 0.1 mm 4 mps 750 mmHg 87%
    22:00 +5°C° 0.1 mm 5 mps 750 mmHg 82%
    23:00 +5°C° 0.1 mm 5 mps 750 mmHg 78%

    Day after tomorrow, 21 January, Sunday

    Time Temperature Precipitation Wind Pressure Humidity
    00:00 +3°C° 0.6 mm 5 mps 750 mmHg 81%
    01:00 +4°C° 0.6 mm 4 mps 751 mmHg 84%
    02:00 +4°C° 0.6 mm 4 mps 751 mmHg 88%
    03:00 +3°C° 0 mm 4 mps 751 mmHg 88%
    04:00 +1°C° 0 mm 4 mps 752 mmHg 89%
    05:00 +1°C° 0 mm 4 mps 752 mmHg 90%
    06:00 +2°C° 0 mm 3 mps 752 mmHg 89%
    07:00 +2°C° 0 mm 3 mps 752 mmHg 88%
    08:00 +2°C° 0 mm 2 mps 753 mmHg 87%
    09:00 +3°C° 0 mm 2 mps 753 mmHg 84%
    10:00 +3°C° 0 mm 3 mps 753 mmHg 81%
    11:00 +4°C° 0 mm 3 mps 753 mmHg 77%
    12:00 +5°C° 0 mm 4 mps 752 mmHg 79%
    13:00 +5°C° 0 mm 4 mps 752 mmHg 80%
    14:00 +5°C° 0 mm 4 mps 751 mmHg 82%
    15:00 +5°C° 0.1 mm 4 mps 751 mmHg 84%
    16:00 +4°C° 0.1 mm 4 mps 750 mmHg 87%
    17:00 +4°C° 0.1 mm 4 mps 750 mmHg 89%
    18:00 +4°C° 0.2 mm 4 mps 750 mmHg 90%
    19:00 +4°C° 0.2 mm 3 mps 750 mmHg 92%
    20:00 +4°C° 0.2 mm 3 mps 749 mmHg 93%
    21:00 +4°C° 0.2 mm 3 mps 749 mmHg 94%
    22:00 +4°C° 0.2 mm 3 mps 749 mmHg 95%
    23:00 +5°C° 0.2 mm 2 mps 749 mmHg 95%

    22 January, Monday

    Time Temperature Precipitation Wind Pressure Humidity
    00:00 +4°C° 0.2 mm 3 mps 749 mmHg 95%
    01:00 +3°C° 0.2 mm 3 mps 748 mmHg 94%
    02:00 +3°C° 0.2 mm 4 mps 748 mmHg 94%
    03:00 +2°C° 0.1 mm 5 mps 748 mmHg 91%
    04:00 +2°C° 0.1 mm 6 mps 748 mmHg 88%
    05:00 0°C° 0.1 mm 7 mps 748 mmHg 86%
    06:00 0°C° 0 mm 7 mps 748 mmHg 83%
    07:00 0°C° 0 mm 8 mps 749 mmHg 80%
    08:00 -1°C° 0 mm 9 mps 749 mmHg 78%
    09:00 0°C° 0 mm 9 mps 749 mmHg 74%
    10:00 0°C° 0 mm 9 mps 750 mmHg 70%
    11:00 +1°C° 0 mm 9 mps 750 mmHg 67%
    12:00 +1°C° 0.1 mm 9 mps 750 mmHg 69%
    13:00 +1°C° 0.1 mm 10 mps 750 mmHg 71%
    14:00 +1°C° 0.1 mm 10 mps 750 mmHg 73%
    15:00 0°C° 0.5 mm 10 mps 751 mmHg 76%
    16:00 0°C° 0.5 mm 10 mps 752 mmHg 79%
    17:00 -2°C° 0.5 mm 10 mps 753 mmHg 82%
    18:00 -2°C° 0.2 mm 10 mps 754 mmHg 83%
    19:00 -3°C° 0.2 mm 9 mps 754 mmHg 83%
    20:00 -2°C° 0.2 mm 8 mps 755 mmHg 83%
    21:00 -4°C° 0 mm 8 mps 756 mmHg 84%
    22:00 -4°C° 0 mm 7 mps 757 mmHg 84%
    23:00 -4°C° 0 mm 7 mps 757 mmHg 84%

    23 January, Tuesday

    Time Temperature Precipitation Wind Pressure Humidity
    00:00 -4°C° 0 mm 7 mps 758 mmHg 84%
    01:00 -5°C° 0 mm 6 mps 758 mmHg 83%
    02:00 -5°C° 0 mm 6 mps 759 mmHg 82%
    03:00 -5°C° 0 mm 6 mps 759 mmHg 82%
    04:00 -5°C° 0 mm 6 mps 760 mmHg 82%
    05:00 -5°C° 0 mm 6 mps 760 mmHg 83%
    06:00 -5°C° 0 mm 5 mps 760 mmHg 82%
    07:00 -5°C° 0 mm 5 mps 761 mmHg 81%
    08:00 -5°C° 0 mm 5 mps 761 mmHg 80%
    09:00 -3°C° 0 mm 4 mps 762 mmHg 74%
    10:00 -1°C° 0 mm 4 mps 762 mmHg 67%
    11:00 0°C° 0 mm 4 mps 762 mmHg 61%
    12:00 0°C° 0 mm 4 mps 762 mmHg 59%
    13:00 +1°C° 0 mm 4 mps 762 mmHg 58%
    14:00 +3°C° 0 mm 3 mps 762 mmHg 56%
    15:00 +2°C° 0 mm 3 mps 762 mmHg 61%
    16:00 +1°C° 0 mm 3 mps 763 mmHg 66%
    17:00 0°C° 0 mm 3 mps 763 mmHg 72%
    18:00 -1°C° 0 mm 3 mps 764 mmHg 73%
    19:00 -1°C° 0 mm 3 mps 764 mmHg 75%
    20:00 -2°C° 0 mm 3 mps 765 mmHg 77%
    21:00 -2°C° 0 mm 3 mps 765 mmHg 77%
    22:00 -2°C° 0 mm 3 mps 765 mmHg 77%
    23:00 -2°C° 0 mm 3 mps 766 mmHg 77%

    24 January, Wednesday

    Time Temperature Precipitation Wind Pressure Humidity
    00:00 -2°C° 0 mm 3 mps 766 mmHg 77%
    01:00 -4°C° 0 mm 3 mps 766 mmHg 76%
    02:00 -4°C° 0 mm 4 mps 766 mmHg 75%
    03:00 -4°C° 0 mm 4 mps 767 mmHg 74%
    04:00 -4°C° 0 mm 4 mps 767 mmHg 74%
    05:00 -4°C° 0 mm 4 mps 767 mmHg 73%
    06:00 -4°C° 0 mm 4 mps 767 mmHg 72%
    07:00 -4°C° 0 mm 3 mps 768 mmHg 71%
    08:00 -4°C° 0 mm 3 mps 768 mmHg 70%
    09:00 -2°C° 0 mm 3 mps 768 mmHg 64%
    10:00 -1°C° 0 mm 3 mps 769 mmHg 57%
    11:00 0°C° 0 mm 3 mps 769 mmHg 50%
    12:00 +1°C° 0 mm 3 mps 769 mmHg 50%
    13:00 +1°C° 0 mm 3 mps 768 mmHg 50%
    14:00 +2°C° 0 mm 3 mps 768 mmHg 50%
    15:00 +1°C° 0 mm 3 mps 768 mmHg 57%
    16:00 0°C° 0 mm 3 mps 768 mmHg 63%
    17:00 -1°C° 0 mm 3 mps 768 mmHg 69%
    18:00 -1°C° 0 mm 3 mps 769 mmHg 72%
    19:00 -2°C° 0 mm 3 mps 769 mmHg 75%
    20:00 -2°C° 0 mm 3 mps 769 mmHg 78%
    21:00 -2°C° 0 mm 3 mps 769 mmHg 79%
    22:00 -2°C° 0 mm 3 mps 769 mmHg 79%
    23:00 -2°C° 0 mm 2 mps 769 mmHg 80%
    Show more